Location: C.E.K. Mees Observatory
(42.7003°N, 77.4088°W)
Time: 04:21:57
(UTC-04:00)

Envisat - Pass Details

Date: 10 October 2017
Orbit: 764 x 766 km, 98.2° (Epoch: 21 October)

Event Time Altitude Azimuth Distance (km) Brightness Sun altitude
Exits shadow 19:27:28 13° 82° (E) 2,080 4.6 -10.4°
Maximum altitude 19:29:06 15° 60° (ENE) 1,963 4.6 -10.7°
Drops below altitude 10° 19:31:56 10° 26° (NNE) 2,309 5.2 -11.3°
Sets 19:35:10 0° 4° (N) 3,240 6.2 -11.8°
